DAL3098 KSAV-KATL

Flight info

Callsign DAL3098
Flight time 0h 38m
Altitude 28000
Route SMALZ TYFTR JJEDI4
Aircraft B738/M-SDE2E3FGHIRWXY/LB1

Departure

Time 2026-05-07 23:23
Airport Savannah Hilton Head International Airport (KSAV)

Arrival

Time 2026-05-08 00:01
Airport Hartsfield Jackson Atlanta International Airport (KATL)
Time Latitude Longitude Altitude Speed Heading
2026-05-07 22:54 32.13519 -81.20603 53 ft 0 kts 327°
2026-05-07 23:08 32.13516 -81.20600 53 ft 3 kts 328°
2026-05-07 23:08 32.13492 -81.20585 53 ft 4 kts 337°
2026-05-07 23:08 32.13467 -81.20576 53 ft 4 kts
2026-05-07 23:09 32.13449 -81.20581 53 ft 4 kts 81°
2026-05-07 23:09 32.13449 -81.20590 53 ft 0 kts 92°
2026-05-07 23:11 32.13449 -81.20589 53 ft 1 kts 92°
2026-05-07 23:11 32.13448 -81.20570 53 ft 4 kts 95°
2026-05-07 23:12 32.13446 -81.20530 53 ft 6 kts 91°
2026-05-07 23:12 32.13448 -81.20470 53 ft 8 kts 78°
2026-05-07 23:12 32.13488 -81.20422 53 ft 9 kts 19°
2026-05-07 23:12 32.13555 -81.20417 53 ft 10 kts 25°
2026-05-07 23:13 32.13570 -81.20340 53 ft 11 kts 89°
2026-05-07 23:13 32.13571 -81.20244 52 ft 13 kts 90°
2026-05-07 23:13 32.13571 -81.20131 52 ft 15 kts 90°
2026-05-07 23:13 32.13565 -81.19995 49 ft 17 kts 98°
2026-05-07 23:14 32.13548 -81.19856 52 ft 17 kts 112°
2026-05-07 23:14 32.13448 -81.19814 52 ft 16 kts 183°
2026-05-07 23:14 32.13338 -81.19819 52 ft 16 kts 180°
2026-05-07 23:14 32.13231 -81.19819 52 ft 15 kts 180°
2026-05-07 23:15 32.13128 -81.19817 52 ft 14 kts 178°
2026-05-07 23:15 32.13033 -81.19799 51 ft 14 kts 146°
2026-05-07 23:15 32.12993 -81.19701 50 ft 13 kts 103°
2026-05-07 23:15 32.12970 -81.19598 49 ft 13 kts 104°
2026-05-07 23:16 32.12965 -81.19496 49 ft 12 kts 91°
2026-05-07 23:16 32.12963 -81.19395 49 ft 12 kts 91°
2026-05-07 23:16 32.12962 -81.19296 49 ft 12 kts 90°
2026-05-07 23:16 32.12962 -81.19200 48 ft 12 kts 91°
2026-05-07 23:17 32.12960 -81.19106 48 ft 11 kts 91°
2026-05-07 23:17 32.12960 -81.19015 48 ft 11 kts 91°
2026-05-07 23:17 32.12961 -81.18926 48 ft 11 kts 88°
2026-05-07 23:17 32.12951 -81.18886 47 ft 3 kts 130°
2026-05-07 23:18 32.12938 -81.18876 45 ft 2 kts 170°
2026-05-07 23:18 32.12937 -81.18876 45 ft 0 kts 172°
2026-05-07 23:20 32.12936 -81.18876 45 ft 2 kts 174°
2026-05-07 23:21 32.12899 -81.18872 41 ft 9 kts 175°
2026-05-07 23:21 32.12858 -81.18879 38 ft 1 kts 225°
2026-05-07 23:21 32.12852 -81.18897 37 ft 3 kts 252°
2026-05-07 23:21 32.12850 -81.18910 37 ft 0 kts 267°
2026-05-07 23:22 32.12850 -81.18998 38 ft 43 kts 270°
2026-05-07 23:22 32.12856 -81.19685 44 ft 122 kts 270°
2026-05-07 23:23 32.12862 -81.20933 181 ft 175 kts 270°
2026-05-07 23:23 32.12877 -81.22465 817 ft 197 kts 271°
2026-05-07 23:23 32.12924 -81.24150 1503 ft 209 kts 272°
2026-05-07 23:23 32.13021 -81.25797 2510 ft 204 kts 275°
2026-05-07 23:24 32.13026 -81.27536 3100 ft 217 kts 267°
2026-05-07 23:24 32.13271 -81.29338 3468 ft 239 kts 299°
2026-05-07 23:24 32.14523 -81.30671 4091 ft 247 kts 334°
2026-05-07 23:24 32.16085 -81.31510 4793 ft 252 kts 335°
2026-05-07 23:25 32.17678 -81.32401 5555 ft 254 kts 333°
2026-05-07 23:25 32.19306 -81.33366 6061 ft 273 kts 332°
2026-05-07 23:25 32.21014 -81.34435 6779 ft 282 kts 331°
2026-05-07 23:25 32.22743 -81.35558 7619 ft 285 kts 330°
2026-05-07 23:26 32.24486 -81.36720 8449 ft 289 kts 330°
2026-05-07 23:26 32.26243 -81.37913 9228 ft 293 kts 329°
2026-05-07 23:26 32.28020 -81.39133 9979 ft 297 kts 329°
2026-05-07 23:26 32.29829 -81.40384 10529 ft 310 kts 329°
2026-05-07 23:27 32.33827 -81.43165 10859 ft 354 kts 329°
2026-05-07 23:27 32.36008 -81.44688 11010 ft 373 kts 329°
2026-05-07 23:27 32.38289 -81.46281 11318 ft 386 kts 329°
2026-05-07 23:28 32.40615 -81.47906 11837 ft 391 kts 329°
2026-05-07 23:28 32.42937 -81.49529 12418 ft 393 kts 328°
2026-05-07 23:28 32.45075 -81.51542 12912 ft 396 kts 309°
2026-05-07 23:28 32.46443 -81.54363 13436 ft 398 kts 289°
2026-05-07 23:29 32.46998 -81.57570 13938 ft 400 kts 271°
2026-05-07 23:29 32.46759 -81.60865 14399 ft 403 kts 262°
2026-05-07 23:29 32.46348 -81.64160 14836 ft 406 kts 261°
2026-05-07 23:29 32.45916 -81.67473 15255 ft 409 kts 261°
2026-05-07 23:30 32.45482 -81.70818 15658 ft 412 kts 261°
2026-05-07 23:30 32.45054 -81.74184 16046 ft 415 kts 261°
2026-05-07 23:30 32.44631 -81.77582 16418 ft 418 kts 262°
2026-05-07 23:30 32.44212 -81.80993 16776 ft 420 kts 262°
2026-05-07 23:31 32.43796 -81.84405 17411 ft 413 kts 262°
2026-05-07 23:31 32.43394 -81.87704 18405 ft 398 kts 262°
2026-05-07 23:31 32.42998 -81.90944 18960 ft 398 kts 262°
2026-05-07 23:31 32.42597 -81.94218 19056 ft 408 kts 262°
2026-05-07 23:32 32.42184 -81.97581 19129 ft 417 kts 262°
2026-05-07 23:32 32.41768 -82.00962 19190 ft 425 kts 262°
2026-05-07 23:32 32.41336 -82.04463 19252 ft 433 kts 262°
2026-05-07 23:32 32.40903 -82.08014 19365 ft 439 kts 262°
2026-05-07 23:33 32.40507 -82.11612 19521 ft 443 kts 266°
2026-05-07 23:33 32.40806 -82.15239 19730 ft 445 kts 283°
2026-05-07 23:33 32.41517 -82.18810 19946 ft 447 kts 283°
2026-05-07 23:33 32.42206 -82.22397 20168 ft 448 kts 282°
2026-05-07 23:34 32.42650 -82.24786 20303 ft 449 kts 282°
2026-05-07 23:34 32.43307 -82.28408 20521 ft 450 kts 282°
2026-05-07 23:34 32.43952 -82.32034 20744 ft 451 kts 282°
2026-05-07 23:34 32.44794 -82.36843 21080 ft 447 kts 281°
2026-05-07 23:35 32.45214 -82.39252 21534 ft 436 kts 281°
2026-05-07 23:35 32.45807 -82.42661 21920 ft 419 kts 281°
2026-05-07 23:35 32.46390 -82.46017 21997 ft 417 kts 281°
2026-05-07 23:35 32.46980 -82.49410 22008 ft 420 kts 281°
2026-05-07 23:36 32.47571 -82.52816 22012 ft 424 kts 281°
2026-05-07 23:36 32.48168 -82.56259 22043 ft 429 kts 281°
2026-05-07 23:36 32.48772 -82.59746 22084 ft 434 kts 281°
2026-05-07 23:36 32.49381 -82.63272 22118 ft 439 kts 281°
2026-05-07 23:37 32.49998 -82.66847 22149 ft 443 kts 281°
2026-05-07 23:37 32.50609 -82.70391 22176 ft 446 kts 281°
2026-05-07 23:37 32.51232 -82.74012 22199 ft 449 kts 281°
2026-05-07 23:37 32.51857 -82.77654 22220 ft 452 kts 281°
2026-05-07 23:38 32.52484 -82.81313 22227 ft 449 kts 281°
2026-05-07 23:38 32.53091 -82.84854 22208 ft 430 kts 281°
2026-05-07 23:38 32.53675 -82.88264 22200 ft 418 kts 281°
2026-05-07 23:38 32.54253 -82.91645 22211 ft 417 kts 281°
2026-05-07 23:39 32.54826 -82.95010 22212 ft 416 kts 281°
2026-05-07 23:39 32.55390 -82.98333 22298 ft 415 kts 281°
2026-05-07 23:39 32.55958 -83.01689 22405 ft 416 kts 281°
2026-05-07 23:39 32.56427 -83.05065 22641 ft 413 kts 275°
2026-05-07 23:40 32.56911 -83.08406 22868 ft 412 kts 290°
2026-05-07 23:40 32.58353 -83.11318 22999 ft 413 kts 312°
2026-05-07 23:40 32.60643 -83.13367 23005 ft 417 kts 335°
2026-05-07 23:40 32.63425 -83.14382 23009 ft 421 kts 351°
2026-05-07 23:41 32.66357 -83.14692 23012 ft 424 kts 354°
2026-05-07 23:41 32.69223 -83.15517 23001 ft 426 kts 336°
2026-05-07 23:41 32.71737 -83.17349 23000 ft 425 kts 319°
2026-05-07 23:41 32.73877 -83.19695 22994 ft 411 kts 314°
2026-05-07 23:42 32.75673 -83.22247 22989 ft 394 kts 304°
2026-05-07 23:42 32.77177 -83.24896 22988 ft 379 kts 303°
2026-05-07 23:42 32.78585 -83.27470 22981 ft 364 kts 302°
2026-05-07 23:42 32.79936 -83.29954 22983 ft 350 kts 302°
2026-05-07 23:43 32.81239 -83.32338 22980 ft 337 kts 303°
2026-05-07 23:43 32.82497 -83.34626 22980 ft 324 kts 303°
2026-05-07 23:43 32.83711 -83.36825 22978 ft 312 kts 303°
2026-05-07 23:43 32.84927 -83.39022 22057 ft 330 kts 303°
2026-05-07 23:44 32.86247 -83.41404 20824 ft 357 kts 303°
2026-05-07 23:44 32.87659 -83.43953 19632 ft 379 kts 303°
2026-05-07 23:44 32.89113 -83.46577 19188 ft 376 kts 303°
2026-05-07 23:44 32.90568 -83.49202 18356 ft 384 kts 303°
2026-05-07 23:45 32.92024 -83.51832 17698 ft 386 kts 303°
2026-05-07 23:45 32.93497 -83.54492 17208 ft 383 kts 303°
2026-05-07 23:45 32.95009 -83.57080 16778 ft 378 kts 310°
2026-05-07 23:45 32.96914 -83.59265 16373 ft 373 kts 319°
2026-05-07 23:46 32.98855 -83.61230 15936 ft 369 kts 320°
2026-05-07 23:46 33.00813 -83.63194 15455 ft 367 kts 319°
2026-05-07 23:46 33.02753 -83.65166 14984 ft 365 kts 319°
2026-05-07 23:46 33.04667 -83.67141 14532 ft 361 kts 319°
2026-05-07 23:47 33.06550 -83.69105 14088 ft 358 kts 318°
2026-05-07 23:47 33.08417 -83.71065 13650 ft 355 kts 318°
2026-05-07 23:47 33.10254 -83.72997 13442 ft 346 kts 318°
2026-05-07 23:47 33.12024 -83.74859 13356 ft 333 kts 318°
2026-05-07 23:48 33.13734 -83.76657 13250 ft 322 kts 318°
2026-05-07 23:48 33.15394 -83.78408 13056 ft 314 kts 318°
2026-05-07 23:48 33.17024 -83.80131 12736 ft 312 kts 318°
2026-05-07 23:48 33.18628 -83.81826 12616 ft 301 kts 318°
2026-05-07 23:49 33.20149 -83.83514 12294 ft 299 kts 315°
2026-05-07 23:49 33.21626 -83.85275 11739 ft 307 kts 314°
2026-05-07 23:49 33.23127 -83.87093 11345 ft 307 kts 314°
2026-05-07 23:49 33.24624 -83.88898 11039 ft 304 kts 314°
2026-05-07 23:50 33.26117 -83.90686 10724 ft 302 kts 314°
2026-05-07 23:50 33.27600 -83.92457 10391 ft 301 kts 314°
2026-05-07 23:50 33.29151 -83.94111 10109 ft 298 kts 327°
2026-05-07 23:50 33.30977 -83.95251 9882 ft 296 kts 334°
2026-05-07 23:51 33.32859 -83.96286 9567 ft 299 kts 335°
2026-05-07 23:51 33.34747 -83.97323 9255 ft 298 kts 335°
2026-05-07 23:51 33.36617 -83.98367 8943 ft 296 kts 334°
2026-05-07 23:51 33.38470 -83.99420 8635 ft 294 kts 334°
2026-05-07 23:52 33.40309 -84.00478 8330 ft 292 kts 334°
2026-05-07 23:52 33.42106 -84.01520 8032 ft 290 kts 334°
2026-05-07 23:52 33.43913 -84.02574 7734 ft 289 kts 333°
2026-05-07 23:52 33.45703 -84.03621 7473 ft 284 kts 333°
2026-05-07 23:53 33.47461 -84.04652 7180 ft 279 kts 333°
2026-05-07 23:53 33.49197 -84.05671 6890 ft 278 kts 333°
2026-05-07 23:53 33.50938 -84.06694 6583 ft 278 kts 333°
2026-05-07 23:53 33.52646 -84.07699 6274 ft 267 kts 333°
2026-05-07 23:54 33.54271 -84.08656 5989 ft 254 kts 333°
2026-05-07 23:54 33.55820 -84.09567 5728 ft 242 kts 333°
2026-05-07 23:54 33.57307 -84.10443 5480 ft 232 kts 333°
2026-05-07 23:54 33.58723 -84.11276 5276 ft 220 kts 333°
2026-05-07 23:55 33.60060 -84.12064 5195 ft 211 kts 333°
2026-05-07 23:55 33.61373 -84.12843 5081 ft 211 kts 330°
2026-05-07 23:55 33.62421 -84.14005 5014 ft 202 kts 302°
2026-05-07 23:55 33.62963 -84.15514 4797 ft 200 kts 277°
2026-05-07 23:56 33.63045 -84.17162 4606 ft 196 kts 273°
2026-05-07 23:56 33.63136 -84.18783 4377 ft 193 kts 273°
2026-05-07 23:56 33.63194 -84.20392 4164 ft 193 kts 271°
2026-05-07 23:56 33.63207 -84.21999 4047 ft 193 kts 270°
2026-05-07 23:57 33.63207 -84.23613 3938 ft 194 kts 269°
2026-05-07 23:57 33.63204 -84.25198 3683 ft 184 kts 269°
2026-05-07 23:57 33.63201 -84.26676 3470 ft 169 kts 269°
2026-05-07 23:57 33.63198 -84.28035 3235 ft 157 kts 269°
2026-05-07 23:58 33.63196 -84.29326 3050 ft 152 kts 269°
2026-05-07 23:58 33.63194 -84.30601 2848 ft 153 kts 269°
2026-05-07 23:58 33.63192 -84.31885 2641 ft 154 kts 269°
2026-05-07 23:58 33.63190 -84.33170 2432 ft 153 kts 269°
2026-05-07 23:59 33.63189 -84.34429 2233 ft 152 kts 269°
2026-05-07 23:59 33.63187 -84.35698 2033 ft 152 kts 269°
2026-05-07 23:59 33.63186 -84.36962 1835 ft 152 kts 269°
2026-05-07 23:59 33.63191 -84.38228 1590 ft 153 kts 270°
2026-05-08 00:00 33.63196 -84.39479 1463 ft 149 kts 269°
2026-05-08 00:00 33.63177 -84.40732 1250 ft 150 kts 271°
2026-05-08 00:00 33.63182 -84.41989 1024 ft 147 kts 269°
2026-05-08 00:00 33.63181 -84.43104 1008 ft 118 kts 270°
2026-05-08 00:01 33.63182 -84.43937 1003 ft 65 kts 270°
2026-05-08 00:01 33.63182 -84.44340 1003 ft 42 kts 270°
2026-05-08 00:01 33.63180 -84.44669 1006 ft 31 kts 269°
2026-05-08 00:01 33.63230 -84.44785 1006 ft 9 kts 341°
2026-05-08 00:02 33.63293 -84.44786 1005 ft 9 kts
2026-05-08 00:02 33.63355 -84.44783 1005 ft 9 kts
2026-05-08 00:02 33.63415 -84.44781 1005 ft 9 kts
2026-05-08 00:02 33.63483 -84.44778 1005 ft 11 kts
2026-05-08 00:03 33.63564 -84.44779 1005 ft 13 kts
2026-05-08 00:03 33.63646 -84.44746 1005 ft 13 kts 45°
2026-05-08 00:03 33.63661 -84.44711 1005 ft 13 kts 72°
2026-05-08 00:03 33.63666 -84.44652 1005 ft 13 kts 90°
2026-05-08 00:04 33.63665 -84.44535 1005 ft 14 kts 90°
2026-05-08 00:04 33.63664 -84.44409 1005 ft 16 kts 90°
2026-05-08 00:04 33.63663 -84.44275 1006 ft 17 kts 88°
2026-05-08 00:04 33.63663 -84.44139 1006 ft 16 kts 91°
2026-05-08 00:05 33.63663 -84.44008 1006 ft 16 kts 90°
2026-05-08 00:05 33.63664 -84.43876 1005 ft 16 kts 90°
2026-05-08 00:05 33.63664 -84.43737 1005 ft 17 kts 90°
2026-05-08 00:05 33.63664 -84.43590 1005 ft 18 kts 90°
2026-05-08 00:06 33.63664 -84.43433 1005 ft 19 kts 89°
2026-05-08 00:06 33.63664 -84.43277 1005 ft 18 kts 90°
2026-05-08 00:06 33.63679 -84.43128 1005 ft 18 kts 64°
2026-05-08 00:06 33.63776 -84.43059 1005 ft 17 kts
2026-05-08 00:07 33.63845 -84.43062 1005 ft 8 kts 358°
2026-05-08 00:07 33.63898 -84.43063 1005 ft 8 kts 358°
2026-05-08 00:07 33.63933 -84.43025 1005 ft 5 kts 78°
2026-05-08 00:07 33.63936 -84.43002 1005 ft 3 kts 85°
2026-05-08 00:08 33.63936 -84.42993 1005 ft 0 kts 87°
2026-05-08 00:08 33.63936 -84.42992 1005 ft 0 kts 87°